Flight Track Log - Related Links

Times and Time Zones

All times are in EDT time to prevent confusion due to time zone crossing. See the N27XP flight status page for this flight to view local times or setup timezone preferences in your user account.

Time Position Orientation Groundspeed Altitude Reporting Facility
EDT Latitude Longitude Course Direction KTS MPH feet Rate Location/Type
10:25AM 35.2122 -79.4867 272° West 180 207 4,700  Level Washington Center
10:25AM 35.2131 -79.5197 272° West 175 201 5,900 2,557 Climbing Washington Center
10:26AM 35.2228 -79.5481 293° West 180 207 7,300 2,242 Climbing Washington Center
10:27AM 35.2833 -79.5461 North 179 206 9,300 1,699 Climbing Washington Center
10:28AM 35.3569 -79.5267 12° North 307 353 10,500 1,745 Climbing Washington Center
10:28AM 35.4350 -79.5000 16° North 343 395 12,500 2,239 Climbing Washington Center
10:29AM 35.4519 -79.4906 24° Northeast 300 345 13,000 2,301 Climbing Washington Center
10:30AM 35.5353 -79.4283 31° Northeast 334 384 15,300 2,186 Climbing Washington Center
10:31AM 35.6211 -79.3608 33° Northeast 361 415 17,300 1,983 Climbing Washington Center
10:32AM 35.6978 -79.3033 31° Northeast 361 415 19,200 1,918 Climbing Washington Center
10:33AM 35.7878 -79.2306 33° Northeast 366 421 21,200 2,017 Climbing Washington Center
10:34AM 35.8797 -79.1606 32° Northeast 377 434 23,200 1,866 Climbing Washington Center
10:35AM 35.9736 -79.0850 33° Northeast 387 445 24,900 1,636 Climbing Washington Center
10:36AM 36.0675 -79.0122 32° Northeast 392 451 26,500 1,623 Climbing Washington Center
10:37AM 36.1656 -78.9367 32° Northeast 398 458 28,200 1,563 Climbing Washington Center
10:38AM 36.2617 -78.8608 32° Northeast 403 464 29,600 1,385 Climbing Washington Center
10:39AM 36.3597 -78.7800 34° Northeast 408 470 30,900 1,190 Climbing Washington Center
10:40AM 36.4600 -78.7014 32° Northeast 413 475 32,000 1,033 Climbing Washington Center
10:41AM 36.5622 -78.6175 33° Northeast 420 483 33,000 1,008 Climbing Washington Center
10:42AM 36.6644 -78.5361 33° Northeast 425 489 34,000 508 Climbing Washington Center
10:43AM 36.7708 -78.4494 33° Northeast 437 503 34,000  Level Washington Center
10:44AM 36.8836 -78.3575 33° Northeast 462 532 34,000  Level Washington Center
10:45AM 37.0047 -78.2550 34° Northeast 494 568 34,000  Level Washington Center
10:46AM 37.1300 -78.1553 32° Northeast 514 592 34,000  Level Washington Center
10:47AM 37.2489 -78.0575 33° Northeast 514 592 34,000  Level Washington Center
10:48AM 37.3739 -77.9594 32° Northeast 514 592 34,000  Level Washington Center
10:49AM 37.4992 -77.8561 33° Northeast 519 597 34,000  Level Washington Center
10:50AM 37.6200 -77.7469 36° Northeast 524 603 34,000  Level Washington Center
10:51AM 37.7386 -77.6400 35° Northeast 524 603 34,000 -600 Level Washington Center
10:52AM 37.8553 -77.5328 36° Northeast 524 603 32,800 -1,561 Descending Washington Center
10:53AM 37.9758 -77.4225 36° Northeast 524 603 30,800 -1,412 Descending Washington Center
10:54AM 38.0919 -77.3144 36° Northeast 519 597 30,000 -403 Descending Washington Center
10:55AM 38.2103 -77.2064 36° Northeast 519 597 30,000 -151 Level Washington Center
10:56AM 38.3286 -77.0978 36° Northeast 525 604 29,700 -1,373 Descending Washington Center
10:57AM 38.4614 -76.9758 36° Northeast 525 604 27,300 -2,231 Descending Washington Center
10:58AM 38.5772 -76.8636 37° Northeast 525 604 25,200 -1,623 Descending Washington Center
10:59AM 38.6950 -76.7539 36° Northeast 525 604 24,000 -605 Descending Washington Center
11:00AM 38.8025 -76.6306 42° Northeast 520 598 24,000  Level Washington Center
11:01AM 38.9100 -76.5067 42° Northeast 515 593 24,000  Level Washington Center
11:02AM 39.0150 -76.3850 42° Northeast 515 593 24,000  Level Washington Center
11:03AM 39.1219 -76.2631 41° Northeast 510 587 24,000  Level Washington Center
11:04AM 39.2269 -76.1408 42° Northeast 510 587 24,000  Level Washington Center
11:05AM 39.3356 -76.0317 38° Northeast 510 587 24,000 -1,663 Level Washington Center
11:07AM 39.5833 -75.8000 36° Northeast 443 510 18,400 -2,537 Descending Philadelphia TRACON
11:08AM 39.6833 -75.7000 38° Northeast 438 504 15,500 -2,650 Descending Philadelphia TRACON
11:09AM 39.7833 -75.6167 33° Northeast 429 494 13,100 -1,190 Descending Philadelphia TRACON
11:10AM 39.8833 -75.5167 37° Northeast 403 464 13,000 -48 Descending Philadelphia TRACON
11:11AM 39.9833 -75.4333 33° Northeast 405 466 13,000  Level Philadelphia TRACON
11:12AM 40.0667 -75.3500 37° Northeast 413 475 13,000 -105 Level Philadelphia TRACON
11:13AM 40.1500 -75.2667 37° Northeast 415 478 12,800 -950 Descending Philadelphia TRACON
11:14AM 40.2333 -75.1833 37° Northeast 386 444 11,100 -1,289 Descending Philadelphia TRACON
11:15AM 40.3167 -75.1167 31° Northeast 306 352 10,200 -1,678 Descending Philadelphia TRACON
11:16AM 40.3833 -75.0333 44° Northeast 324 373 7,800 -1,744 Descending New York TRACON
11:17AM 40.4333 -74.9500 52° Northeast 283 326 6,800 -1,286 Descending New York TRACON
11:18AM 40.5000 -74.8667 44° Northeast 299 344 5,100 -810 Descending New York TRACON
11:19AM 40.5500 -74.8000 45° Northeast 291 335 5,100 -500 Level New York TRACON
11:20AM 40.6167 -74.7167 43° Northeast 316 364 4,100 -500 Descending New York TRACON
11:21AM 40.6833 -74.6833 21° North 299 344 4,100 -300 Level New York TRACON
11:22AM 40.7667 -74.6333 24° Northeast 305 351 3,500 -522 Descending New York TRACON
11:23AM 40.8333 -74.6000 21° North 290 334 3,100 -200 Descending New York TRACON
11:24AM 40.9000 -74.5500 30° Northeast 274 315 3,100  Level New York TRACON
11:25AM 40.9500 -74.4833 45° Northeast 241 277 3,100  Level New York TRACON
11:26AM 40.9833 -74.4000 62° Northeast 220 253 3,100 -150 Level New York TRACON
11:27AM 40.9833 -74.3333 90° East 185 213 2,800 -500 Descending New York TRACON
11:28AM 40.9667 -74.2667 108° East 182 209 2,100 -350 Descending New York TRACON
11:29AM 40.9333 -74.3000 217° Southwest 157 181 2,100  Level New York TRACON
11:30AM 40.8833 -74.3167 194° South 159 183 2,100 -250 Level New York TRACON
11:31AM 40.8667 -74.3500 237° Southwest 135 155 1,600 -550 Descending New York TRACON
11:32AM 40.8333 -74.3833 217° Southwest 138 159 1,000 -600 Descending New York TRACON

Login

Don't have an account? Register now (free) for customized features, flight alerts, and more!